Weather in Orlovka

Russia / Amur Oblast     49°33′29″N   128°07′00″E
temp.,
°C
wind,
m/s
gust,
m/s
humid.,
%
clouds,
%
prec.,
mm/h
press.,
hPa
HPBL,
m
16 may, sun
sun1600:00+10wsw4116254 0.0 1002195
03:00+8wsw410650 0.0 1002183
06:00+8wsw39630 0.0 1003216
09:00+16wnw510400 0.0 10031059
12:00+19w69283 0.0 10022526
15:00+21w68234 0.0 10002964
18:00+20wsw35340 0.0 999202
21:00+15s344067 0.0 99943
17 may, mon
mon1700:00+12sw36490 0.0 99979
03:00+10sw33500 0.0 99954
06:00+11sw35605 0.0 999105
09:00+18wnw46450 0.0 999801
12:00+22w57335 0.0 9992649
15:00+23w682810 0.0 9993031
18:00+22wnw363627 0.0 999546
21:00+15e39505 0.0 999166
18 may, tue
tue1800:00+12ene356410 0.0 99697
03:00+10wnw2270100 0.0 99523
06:00+10w2261100 0.0 99586
09:00+15nw5748100 0.0 997703
12:00+17nnw474496 0.0 9981556
15:00+20nw5631100 0.0 9992511
18:00+18wnw3640100 0.0 1000196
21:00+13wnw223892 0.0 100211
19 may, wed
wed1900:00+9nne22664 0.0 100535
03:00+7nw22680 0.0 100711
06:00+8w01622 0.0 100841
09:00+14sw23495 0.0 1008733
12:00+19wsw692574 0.0 10072874
15:00+21wsw692523 0.0 10052893
18:00+20wsw243445 0.0 1004958
21:00+15sse444394 0.0 100456
20 may, thu
thu2000:00+13s3743100 0.0 1002104
03:00+11s334693 0.0 100041
06:00+12ssw31471100 0.3 999451
09:00+17sw4867100 0.6 999487
12:00+22wnw454749 0.0 10011461
15:00+23nne434298 0.0 10011154
18:00+22nne44455 0.0 1002712
21:00+16ne4106122 0.0 1005244